Location: Rydu��towy
(50.0595°N, 18.4161°E)
Time: 05:55:41
(UTC+02:00)

ISS - Visible Passes

Search period start: 26 April 2019 00:00
Search period end: 06 May 2019 00:00
Orbit: 408 x 410 km, 51.6° (Epoch: 26 April)

Date Brightness Start Highest point End Pass type
(mag) Time Alt. Az. Time Alt. Az. Time Alt. Az.
01 May -1.7 04:31:37 10° S 04:34:02 19° SE 04:36:26 10° E visible
02 May -1.3 03:42:02 10° SSE 03:43:24 12° SE 03:44:45 10° ESE visible
03 May -2.7 04:25:38 10° SW 04:28:36 35° SSE 04:31:41 10° E visible
04 May -2.2 03:36:36 19° S 03:37:52 23° SE 03:40:34 10° E visible
05 May -1.5 02:47:31 15° SE 02:47:31 15° SE 02:49:12 10° E visible
05 May -3.6 04:20:15 12° WSW 04:23:15 63° SSE 04:26:33 10° ENE visible
